Simultaneous Nadir Overpasses (SNOs) Predictions

Prediction of SNOs between AQUA and METOP-B Satellite Orbit:

Table of predicted SNOs for the next 14.0 days since TLE Epoch: 12/17/2023
Index Date (AQUA) Time (AQUA) Lat,Lon (AQUA) SZA (AQUA ) Date (METOP-B) Time (METOP-B) Lat,Lon (METOP-B) SZA (METOP-B ) Distance(km) Time Diff (sec)
1 12/17/2023 17:55:30 75.08, -92.25 98.37 12/17/2023 17:54:50 75.08, -92.37 98.37 3.43 40
2 12/17/2023 18:44:54 -75.14, 75.24 81.57 12/17/2023 18:45:30 -75.15, 75.16 81.56 2.12 36
3 12/20/2023 10:07:42 74.55, 26.08 97.89 12/20/2023 10:06:37 74.44, 23.00 97.83 92.50 65
4 12/20/2023 10:57:17 -75.16,-167.87 81.48 12/20/2023 10:57:04 -75.15,-167.75 81.50 3.79 13
5 12/20/2023 11:46:41 75.16, -0.23 98.53 12/20/2023 11:47:43 75.19, -0.29 98.55 3.12 62
6 12/23/2023 03:09:37 -75.12, -50.82 81.51 12/23/2023 03:08:38 -75.09, -50.81 81.54 3.93 59
7 12/23/2023 03:59:02 75.18, 116.68 98.55 12/23/2023 03:59:16 75.18, 116.77 98.55 2.65 14
8 12/25/2023 20:11:22 75.14,-126.26 98.47 12/25/2023 20:10:50 75.16,-126.19 98.48 2.51 32
9 12/25/2023 21:00:46 -75.20, 41.24 81.48 12/25/2023 21:01:31 -75.19, 41.23 81.49 1.17 45
10 12/28/2023 12:23:40 75.05, -9.05 98.27 12/28/2023 12:22:27 74.98, -9.58 98.22 16.93 73
11 12/28/2023 13:13:05 -75.15, 158.32 81.63 12/28/2023 13:13:05 -75.16, 158.25 81.62 2.23 0



Historial Predications of SNOs between AQUA and METOP-B
